Regional Weather Roundup
Issued by NWS Bismarck, ND

Home | Current Version | Previous Version | Text Only | Print | Product List | Glossary On
Versions: 1 2 3 4 5 6 7 8 9 10 11 12 13 14 15 16 17 18 19 20 21 22 23 24 25 26 27 28 29 30 31 32 33 34 35 36 37 38 39 40 41 42 43 44 45 46 47 48 49 50
000
ASUS43 KBIS 250910
RWRBIS

NWR BROADCAST TEXT
NATIONAL WEATHER SERVICE BISMARCK ND
400 AM CDT WED APR 25 2018

NOTE: "FAIR" INDICATES FEW OR NO CLOUDS BELOW 12,000 FEET WITH NO
SIGNIFICANT WEATHER AND/OR OBSTRUCTIONS TO VISIBILITY.


CITY           SKY/WX    TMP DP  RH WIND       PRES   REMARKS
WILLISTON      PTCLDY    40  33  76 SW8       30.18F
MINOT          CLEAR     45  30  55 SW14      30.16F
MINOT AFB      CLEAR     43  31  63 W13       30.15F
BISMARCK       CLEAR     33  27  78 CALM      30.27F
DICKINSON      CLEAR     36  26  67 SW12      30.22F
GARRISON         N/A     34  30  85 SW5       30.21F
HETTINGER ARPT CLEAR     30  23  75 CALM      30.29F
JAMESTOWN      CLEAR     33  26  75 SW7       30.26F
CARRINGTON     FAIR      36  28  75 SW8       30.26F
HAZEN          FAIR      36  28  75 SW7       30.25F
MANDAN         FAIR      37  30  75 SW10      30.26F
OAKES            N/A     32  32 100 SW3       30.30F
RUGBY          FAIR      36  28  75 S10       30.18F
STANLEY          N/A     39  30  70 SW10      30.20F
TIOGA          FAIR      37  34  87 SW13      30.18F
WATFORD CITY   FAIR      32  30  93 SW5       30.19F
$$

CITY           SKY/WX    TMP DP  RH WIND       PRES   REMARKS
GRAND FORKS    FAIR      32  30  92 S9        30.25F
GRAND FORKS AF FAIR      34  27  75 SW9       30.24F
DEVILS LAKE    FAIR      37  27  67 SW12      30.23F
FARGO          FAIR      30  28  92 S5        30.28F
CANDO          FAIR      36  28  75 S8        30.21F
CAVALIER         N/A     37  27  65 S10       30.19F
GRAFTON        FAIR      28  27  93 S8        30.25S
GWINNER          N/A     32  30  93 W8        30.30S
LANGDON        FAIR      34  30  86 SW15      30.20S
ROLLA          FAIR      37  25  60 SW17      30.16F
$$

CITY           SKY/WX    TMP DP  RH WIND       PRES   REMARKS
ABERDEEN       CLEAR     26  25  96 CALM      30.32F
MOBRIDGE       CLEAR     33  28  81 SE7       30.28F
BUFFALO          N/A     34  26  72 W5        30.21F
RAPID CITY     CLEAR     31  22  69 W3        30.33F
GLASGOW        PTCLDY    39  31  72 SE12      30.09F
SIDNEY         PTCLDY    39  32  76 S10       30.20F
WOLF POINT     PTCLDY    43  29  57 S8        30.14F
GLENDIVE       PTCLDY    37  29  72 S5        30.21F
MILES CITY     CLEAR     36  32  85 S12       30.21F
BAKER          CLEAR     34  29  82 S12       30.25F
$$

CITY           SKY/WX    TMP DP  RH WIND       PRES   REMARKS
BILLINGS       CLEAR     43  28  55 SW15      30.22F
GREAT FALLS    MOCLDY    48  22  35 S20       30.11F
REGINA         PTCLDY    43  28  56 S14       29.98F
ESTEVAN        MOCLDY    41  30  65 SW14      30.10F
$$




USA.gov is the U.S. government's official web portal to all federal, state and local government web resources and services.